Regional Weather Roundup
Issued by NWS State College, PA

Home | Current Version | Previous Version | Graphics & Text | Print | Product List | Glossary Off
Versions: 1 2 3 4 5 6 7 8 9 10 11 12 13 14 15 16 17 18 19 20 21 22 23 24 25 26 27 28 29 30 31 32 33 34 35 36 37 38 39 40 41 42 43 44 45 46 47 48 49 50

000
ASUS41 KCTP 271903
RWRCTP

REGIONAL WEATHER ROUNDUP
NATIONAL WEATHER SERVICE STATE COLLEGE PA
300 PM EDT MON MAR 27 2017

Note: "fair" indicates few or no clouds below 12,000 feet with no
significant weather and/or obstructions to visibility.

* = STATION THAT DOES NOT REPORT PRECIPITATION /E.G. RAIN...SNOW...ETC/
    THUNDER OR FOG.

PAZ002>004-007>009-013>016-020>023-029>032-272000-
WESTERN PENNSYLVANIA

CITY           SKY/WX    TMP DP  RH WIND       PRES   REMARKS
ERIE           CLOUDY    55  48  77 W9        29.94F
MEADVILLE      CLOUDY    60  46  59 SW14G21   29.93F
FRANKLIN*      CLOUDY    61  46  59 W10       29.96F
NEW CASTLE     CLOUDY    63  49  60 S9G16     29.95F
BEAVER COUNTY  CLOUDY    61  46  59 SW15      29.95F
BUTLER*        PTSUNNY   64  48  55 SW9       29.96F
PITTSBURGH INT MOSUNNY   66  49  54 VRB6G17   29.94F
PITTSBURGH     MOSUNNY   65  46  50 W8        29.94F
INDIANA*       MOSUNNY   64  50  59 W12G21    29.98F
LATROBE        PTSUNNY   66  48  52 W16       29.97F
WASHINGTON CO* MOSUNNY   66  48  52 W9G17     29.97F
$$

PAZ004>006-010>012-017>019-024>028-033>037-041-042-045-046-049>053-272000-
CENTRAL PENNSYLVANIA

CITY           SKY/WX    TMP DP  RH WIND       PRES   REMARKS
BRADFORD       CLOUDY    58  47  66 W8G17     29.93F
DUBOIS         PTSUNNY   61  46  57 W14G21    29.95F
CLEARFIELD       N/A    N/A N/A N/A MISG      29.95F
JOHNSTOWN      CLOUDY    64  48  56 W16G26    29.96F
ALTOONA        CLOUDY    68  52  56 W14       29.95F
STATE COLLEGE  PTSUNNY   59  50  72 CALM      29.96F
WILLIAMSPORT   MOSUNNY   53  45  74 E6        29.98F
SELINSGROVE    MOSUNNY   55  49  80 SE9       29.99F
FT INDIANTOWN  PTSUNNY   53  53 100 VRB3      29.99F
CAPITAL CITY   CLOUDY    52  46  80 CALM      30.01F
HARRISBURG     CLOUDY    49  47  93 W3        30.00F
YORK           PTSUNNY   59  54  83 CALM      29.99F
$$

PAZ038>040-043-044-047-048-054-055-060>062-067>071-272000-
EASTERN PENNSYLVANIA

CITY           SKY/WX    TMP DP  RH WIND       PRES   REMARKS
SCRANTON       CLOUDY    52  47  83 SW8       29.98F
MOUNT POCONO   CLOUDY    51  48  89 W10       29.97F
ALLENTOWN      CLOUDY    49  44  83 CALM      30.01F
QUAKERTOWN*    CLOUDY    52  48  87 NW5       30.02F
READING        CLOUDY    50  48  93 W3        30.01F
LANCASTER      CLOUDY    55  52  89 CALM      30.00F
COATESVILLE    CLOUDY    57  52  82 VRB3      30.01F
POTTSTOWN      LGT RAIN  51  47  86 CALM      30.03F FOG
BLUE BELL      CLOUDY    52  50  93 CALM      30.00F
DOYLESTOWN     CLOUDY    52  49  89 VRB3      30.00F
WILLOW GROVE   NOT AVBL
NORTH PHILA    CLOUDY    56  51  84 SW7       30.03F HAZE
PHILADELPHIA   CLOUDY    55  51  86 SW8       30.02F
$$




USA.gov is the U.S. government's official web portal to all federal, state and local government web resources and services.